Weather History for KMDS - August, 2013

Change the Weather History Date:

Thursday, August 1, 2013

  Actual Average Record
Temperature  
Mean Temperature 65 °F -  
Max Temperature 80 °F 83 °F 96 °F (2012)
Min Temperature 50 °F 59 °F 50 °F (2013)
Growing Degree Days 15 (Base 50)    
Moisture  
Dew Point 59 °F    
Average Humidity 79    
Maximum Humidity 100    
Minimum Humidity 44    
Precipitation  
Precipitation 0.00 in - - ()
Sea Level Pressure  
Sea Level Pressure 30.02 in    
Wind  
Wind Speed 5 mph (North)    
Max Wind Speed 12 mph    
Max Gust Speed -    
Visibility 10 miles    
Events      
Averages and records for this station are not official NWS values.
T = Trace of Precipitation, MM = Missing Value Source: NWS Daily Summary

Daily Weather History Graph

Daily Weather History Graph

Search for Another Location

Airport or City:

Trip Planner

Search our weather history database for the weather conditions in past years. The results will help you decide how hot, cold, wet, or windy it might be!

Date:

Astronomy

Aug. 01, 2013 Rise Set
Actual Time 6:16 AM CDT 8:51 PM CDT
Civil Twilight 5:43 AM CDT 9:24 PM CDT
Nautical Twilight 5:02 AM CDT 10:05 PM CDT
Astronomical Twilight 4:15 AM CDT 10:52 PM CDT
Moon 1:53 AM CDT (8/1) 5:03 PM CDT (8/1)
Length of Visible Light 15h 40m
Length of Day
14h 35m
Waning Crescent, 23% of the Moon is Illuminated
Aug 1
Waning Crescent
Aug 6
New
Aug 14
First Quarter
Aug 20
Full
Aug 28
Last Quarter

Hourly Weather History & Observations

Time (CDT) Temp. Heat Index Dew Point Humidity Pressure Visibility Wind Dir Wind Speed Gust Speed Precip Events Conditions
12:10 AM 60.8 °F - 60.8 °F 100% 30.12 in 10.0 mi Calm Calm - N/A   Clear
12:30 AM 60.8 °F - 60.8 °F 100% 30.11 in 10.0 mi SSW 4.6 mph - N/A   Clear
12:50 AM 59.0 °F - 59.0 °F 100% 30.11 in 10.0 mi SSW 5.8 mph - N/A   Clear
1:10 AM 57.2 °F - 57.2 °F 100% 30.10 in 10.0 mi South 8.1 mph - N/A   Clear
1:30 AM 59.0 °F - 59.0 °F 100% 30.09 in 10.0 mi South 5.8 mph - N/A   Clear
1:50 AM 59.0 °F - 59.0 °F 100% 30.09 in 10.0 mi South 4.6 mph - N/A   Clear
2:10 AM 59.0 °F - 59.0 °F 100% 30.09 in 10.0 mi SE 3.5 mph - N/A   Clear
2:30 AM 59.0 °F - 59.0 °F 100% 30.09 in 10.0 mi Calm Calm - N/A   Clear
2:50 AM 57.2 °F - 57.2 °F 100% 30.09 in 10.0 mi ESE 3.5 mph - N/A   Clear
3:10 AM 55.4 °F - 55.4 °F 100% 30.08 in 10.0 mi ESE 3.5 mph - N/A   Clear
3:30 AM 55.4 °F - 55.4 °F 100% 30.08 in 4.0 mi SE 3.5 mph - N/A   Clear
3:50 AM 57.2 °F - 57.2 °F 100% 30.08 in 3.0 mi Calm Calm - N/A   Clear
4:10 AM 53.6 °F - 53.6 °F 100% 30.08 in 10.0 mi Calm Calm - N/A   Clear
4:30 AM 53.6 °F - 53.6 °F 100% 30.07 in 9.0 mi East 5.8 mph - N/A   Clear
4:50 AM 53.6 °F - 53.6 °F 100% 30.07 in 10.0 mi ENE 5.8 mph - N/A   Clear
5:10 AM 50.0 °F - 50.0 °F 100% 30.07 in 10.0 mi Calm Calm - N/A   Clear
5:30 AM 51.8 °F - 51.8 °F 100% 30.07 in 5.0 mi ENE 3.5 mph - N/A   Clear
5:50 AM 51.8 °F - 51.8 °F 100% 30.07 in 10.0 mi East 4.6 mph - N/A   Clear
6:10 AM 53.6 °F - 53.6 °F 100% 30.07 in 3.0 mi SSE 3.5 mph - N/A   Clear
6:30 AM 53.6 °F - 53.6 °F 100% 30.07 in 10.0 mi South 3.5 mph - N/A   Clear
6:50 AM 55.4 °F - 55.4 °F 100% 30.07 in 10.0 mi South 3.5 mph - N/A   Clear
7:10 AM 57.2 °F - 57.2 °F 100% 30.06 in 10.0 mi South 3.5 mph - N/A   Clear
7:30 AM 59.0 °F - 59.0 °F 100% 30.06 in 10.0 mi South 3.5 mph - N/A   Clear
7:50 AM 60.8 °F - 60.8 °F 100% 30.06 in 10.0 mi South 4.6 mph - N/A   Clear
8:10 AM 64.4 °F - 64.4 °F 100% 30.07 in 10.0 mi SW 5.8 mph - N/A   Clear
8:30 AM 66.2 °F - 66.2 °F 100% 30.07 in 10.0 mi SW 6.9 mph - N/A   Clear
8:50 AM 69.8 °F - 68.0 °F 94% 30.07 in 10.0 mi WSW 5.8 mph - N/A   Partly Cloudy
9:10 AM 71.6 °F - 66.2 °F 83% 30.06 in 10.0 mi West 10.4 mph - N/A   Clear
9:30 AM 71.6 °F - 66.2 °F 83% 30.06 in 10.0 mi West 6.9 mph - N/A   Clear
9:50 AM 73.4 °F - 64.4 °F 73% 30.06 in 10.0 mi West 6.9 mph - N/A   Clear
10:10 AM 73.4 °F - 64.4 °F 73% 30.05 in 10.0 mi WNW 9.2 mph - N/A   Clear
10:30 AM 75.2 °F - 64.4 °F 69% 30.05 in 10.0 mi NW 8.1 mph - N/A   Clear
10:50 AM 77.0 °F - 64.4 °F 65% 30.04 in 10.0 mi NNW 6.9 mph - N/A   Clear
11:10 AM 77.0 °F - 62.6 °F 61% 30.05 in 10.0 mi NW 8.1 mph - N/A   Clear
11:30 AM 78.8 °F - 62.6 °F 57% 30.05 in 10.0 mi NNW 6.9 mph - N/A   Clear
11:50 AM 78.8 °F - 60.8 °F 54% 30.04 in 10.0 mi NNW 9.2 mph - N/A   Scattered Clouds
12:10 PM 78.8 °F - 60.8 °F 54% 30.04 in 10.0 mi NNW 8.1 mph - N/A   Scattered Clouds
12:30 PM 80.6 °F 80.8 °F 57.2 °F 45% 30.04 in 10.0 mi NW 11.5 mph - N/A   Partly Cloudy
12:50 PM 78.8 °F - 59.0 °F 51% 30.03 in 10.0 mi NNW 9.2 mph - N/A   Mostly Cloudy
1:10 PM 78.8 °F - 59.0 °F 51% 30.03 in 10.0 mi NNW 6.9 mph - N/A   Mostly Cloudy
1:30 PM 78.8 °F - 59.0 °F 51% 30.02 in 10.0 mi NNW 8.1 mph - N/A   Scattered Clouds
1:50 PM 80.6 °F 81.1 °F 59.0 °F 48% 30.01 in 10.0 mi NNW 8.1 mph - N/A   Partly Cloudy
2:10 PM 80.6 °F 80.8 °F 57.2 °F 45% 30.00 in 10.0 mi NW 8.1 mph - N/A   Partly Cloudy
2:30 PM 80.6 °F 81.1 °F 59.0 °F 48% 29.99 in 10.0 mi NW 6.9 mph - N/A   Clear
2:50 PM 80.6 °F 81.1 °F 59.0 °F 48% 29.99 in 10.0 mi North 9.2 mph - N/A   Clear
3:10 PM 80.6 °F 80.8 °F 57.2 °F 45% 29.99 in 10.0 mi NNE 5.8 mph - N/A   Clear
3:30 PM 78.8 °F - 55.4 °F 44% 29.98 in 10.0 mi NNW 6.9 mph - N/A   Clear
3:50 PM 78.8 °F - 57.2 °F 47% 29.99 in 10.0 mi NNE 9.2 mph - N/A   Clear
4:10 PM 80.6 °F 80.8 °F 57.2 °F 45% 29.98 in 10.0 mi North 6.9 mph - N/A   Clear
4:30 PM 78.8 °F - 57.2 °F 47% 29.97 in 10.0 mi North 6.9 mph - N/A   Clear
4:50 PM 78.8 °F - 57.2 °F 47% 29.96 in 10.0 mi NNE 8.1 mph - N/A   Clear
5:10 PM 78.8 °F - 57.2 °F 47% 29.96 in 10.0 mi NNE 9.2 mph - N/A   Clear
5:30 PM 77.0 °F - 57.2 °F 50% 29.95 in 10.0 mi NNE 8.1 mph - N/A   Clear
5:50 PM 77.0 °F - 57.2 °F 50% 29.95 in 10.0 mi North 6.9 mph - N/A   Partly Cloudy
6:10 PM 77.0 °F - 60.8 °F 57% 29.95 in 10.0 mi NNE 6.9 mph - N/A   Clear
6:30 PM 75.2 °F - 59.0 °F 57% 29.95 in 10.0 mi North 8.1 mph - N/A   Mostly Cloudy
6:50 PM 75.2 °F - 59.0 °F 57% 29.95 in 10.0 mi NNE 8.1 mph - N/A   Overcast
7:10 PM 73.4 °F - 59.0 °F 61% 29.95 in 10.0 mi NE 5.8 mph - N/A   Mostly Cloudy
7:30 PM 73.4 °F - 59.0 °F 61% 29.93 in 10.0 mi NE 6.9 mph - N/A   Partly Cloudy
7:50 PM 71.6 °F - 59.0 °F 64% 29.93 in 10.0 mi NE 5.8 mph - N/A   Clear
8:10 PM 68.0 °F - 59.0 °F 73% 29.93 in 10.0 mi NE 4.6 mph - N/A   Clear
8:30 PM 66.2 °F - 60.8 °F 83% 29.94 in 10.0 mi NNE 5.8 mph - N/A   Clear
8:50 PM 64.4 °F - 64.4 °F 100% 29.95 in 10.0 mi North 4.6 mph - N/A   Scattered Clouds
9:10 PM 64.4 °F - 64.4 °F 100% 29.95 in 10.0 mi North 5.8 mph - N/A   Mostly Cloudy
9:30 PM 64.4 °F - 64.4 °F 100% 29.96 in 10.0 mi Calm Calm - N/A   Overcast
9:50 PM 64.4 °F - 62.6 °F 94% 29.95 in 10.0 mi Calm Calm - N/A   Scattered Clouds
10:10 PM 62.6 °F - 62.6 °F 100% 29.96 in 10.0 mi North 6.9 mph - N/A   Partly Cloudy
10:30 PM 60.8 °F - 60.8 °F 100% 29.96 in 10.0 mi NE 4.6 mph - N/A   Partly Cloudy
10:50 PM 60.8 °F - 60.8 °F 100% 29.95 in 10.0 mi Calm Calm - N/A   Mostly Cloudy
11:10 PM 60.8 °F - 60.8 °F 100% 29.94 in 10.0 mi ENE 4.6 mph - N/A   Overcast
11:30 PM 59.0 °F - 59.0 °F 100% 29.93 in 10.0 mi ENE 5.8 mph - N/A   Mostly Cloudy
11:50 PM 59.0 °F - 59.0 °F 100% 29.94 in 10.0 mi ENE 5.8 mph - N/A   Mostly Cloudy